[[{"header":{"parameterUnit":"m.s-1","parameterCategory":1,"la1":30.2991,"la2":30.254,"lo1":-89.0895,"lo2":-89.0444,"dy":0.0017,"dx":0.0017,"nx":28,"ny":28,"refTime":"2024-05-12T03:00:00:Z","depth":0,"parameterNumber":2,"parameterNumberName":"U-component_of_WINDS"},"data":[0,0,0,0,0,0,0,0,0,0,0,0,0,0,0,0,0,0,0,0,0,0,0,0,0,0,0,0,0,0,0,0,0,0,0,0,0,0,0,0,0,0,0,0,0,0,0,0,0,0,0,0,0,0,0,0,0,0,-6.6582,-6.6582,0,-6.6614,-6.6614,-6.6614,-6.6493,-6.649,-6.6486,-6.6483,-6.6516,-6.652,-6.6524,0,0,0,0,0,0,0,0,0,0,0,0,0,-6.6417,-6.6421,-6.6581,-6.6582,-6.6582,-6.6614,-6.6614,-6.6614,-6.6494,-6.6489,-6.6485,-6.6481,-6.6515,-6.652,-6.6525,0,0,0,0,0,0,0,0,0,0,0,0,0,-6.6473,-6.6422,-6.6581,-6.6526,-6.6521,-6.6614,-6.6614,-6.6615,-6.6495,-6.6489,-6.6484,-6.6479,-6.6513,-6.6519,-6.6525,-6.6673,0,0,-6.6545,-6.6548,0,0,0,0,0,0,0,0,-6.647,-6.6479,-6.6534,-6.653,-6.6525,-6.6544,-6.6568,-6.6634,-6.6496,-6.6505,-6.6482,-6.6476,-6.653,-6.6534,-6.6552,-6.6675,-6.6676,-6.6545,-6.6549,-6.6552,-6.6554,0,0,0,0,0,0,0,-6.6466,-6.6477,-6.6594,-6.6535,-6.6529,-6.65,-6.6502,-6.658,-6.6547,-6.6504,-6.6495,-6.65,-6.6526,-6.6546,-6.6552,-6.6676,-6.6545,-6.6551,-6.6555,-6.6557,-6.6922,-6.6928,0,0,0,0,0,0,-6.6469,-6.6474,-6.6593,-6.6595,-6.6483,-6.6507,-6.6509,-6.6543,-6.6546,-6.6541,-6.6505,-6.6495,-6.6538,-6.6545,-6.6553,-6.6726,-6.6552,-6.6558,-6.6562,-6.6917,-6.6924,-6.693,0,0,0,0,0,0,-6.6466,-6.6481,-6.6592,-6.6532,-6.6544,-6.6516,-6.6555,-6.6547,-6.6567,-6.6547,-6.6541,-6.6531,-6.6534,-6.6544,-6.6644,-6.6725,-6.6561,-6.6567,-6.691,-6.6919,-6.6927,-6.7073,0,0,0,0,0,0,-6.6462,-6.6481,-6.6536,-6.6535,-6.6548,-6.6683,-6.656,-6.6551,-6.6578,-6.6565,-6.657,-6.6566,-6.6531,-6.6635,-6.6651,-6.6731,-6.6572,-6.6902,-6.6914,-6.6924,-6.7061,-6.7086,-6.7107,0,0,0,0,0,-6.6457,-6.6576,-6.6539,-6.6554,-6.6616,-6.6687,-6.6695,-6.6652,-6.6585,-6.664,-6.6628,-6.6566,-6.6715,-6.6647,-6.6663,-6.6746,-6.6897,-6.6911,-6.6923,-6.7051,-6.7081,-6.7107,0,0,0,0,0,0,-6.6587,-6.6574,-6.6534,-6.6656,-6.6674,-6.6667,-6.6735,-6.6685,-6.6722,-6.6708,-6.6654,-6.6656,-6.6766,-6.6766,-6.6691,-6.689,-6.6794,-6.6811,-6.6885,-6.6914,-6.6937,-6.6934,-6.6577,0,0,0,0,0,-6.663,-6.6688,-6.6674,-6.6784,-6.6795,-6.6764,-6.6793,-6.6759,-6.6775,-6.6782,-6.6776,-6.6795,-6.6845,-6.688,-6.6926,-6.7061,-6.7061,-6.7127,-6.715,-6.7169,-6.7184,-6.7256,-6.7286,-6.6974,-6.6973,-6.6973,0,0,-6.6719,-6.672,-6.676,-6.681,-6.6819,-6.6882,-6.6771,-6.6841,-6.6887,-6.6792,-6.6886,-6.6884,-6.6901,-6.702,-6.7072,-6.7023,-6.7271,-6.7186,-6.7201,-6.7206,-6.7273,-6.7303,-6.7329,-6.6982,-6.6981,-6.6979,0,0,-6.6913,-6.692,-6.7011,-6.7024,-6.704,-6.7019,-6.7042,-6.7043,-6.7037,-6.7131,-6.7062,-6.7116,-6.7205,-6.722,-6.7239,-6.7442,-6.7386,-6.7459,-6.7579,-6.765,-6.7675,-6.7696,-6.7768,-6.7795,-6.7474,-6.7474,-6.7474,0,-6.7022,-6.7112,-6.7065,-6.714,-6.7164,-6.7083,-6.7176,-6.719,-6.7221,-6.724,-6.7185,-6.7296,-6.7301,-6.7423,-6.7472,-6.7491,-6.7515,-6.7457,-6.7675,-6.7696,-6.7715,-6.7783,-6.7811,-6.7483,-6.7482,-6.7481,-6.748,0,-6.7245,-6.7309,-6.7381,-6.7413,-6.7446,-6.753,-6.7496,-6.7535,-6.7499,-6.7484,-6.7582,-6.7586,-6.7631,-6.7658,-6.7623,-6.7775,-6.7745,-6.7684,-6.7586,-6.7754,-6.7818,-6.7843,-6.7495,-6.7492,-6.7489,-6.7487,0,0,-6.7519,-6.7526,-6.7553,-6.7567,-6.758,-6.7629,-6.771,-6.7754,-6.7789,-6.7814,-6.788,-6.7959,-6.7903,-6.7925,-6.7891,-6.7954,-6.8115,-6.7885,-6.7884,-6.7927,-6.8283,-6.8328,-6.8359,-6.8078,-6.8083,-6.8087,-6.8281,0,-6.7709,-6.7847,-6.7808,-6.7946,-6.8005,-6.793,-6.8,-6.8017,-6.8006,-6.8055,-6.8043,-6.8099,-6.8021,-6.8034,-6.8093,-6.8083,-6.8185,-6.8068,-6.814,-6.8143,-6.8137,-6.8392,-6.8439,-6.8622,-6.8306,-6.831,-6.8313,0,-6.7948,-6.7983,-6.8127,-6.8132,-6.8155,-6.8219,-6.8258,-6.8306,-6.8323,-6.8311,-6.8338,-6.8292,-6.8372,-6.8276,-6.8386,-6.8308,-6.8335,-6.8335,-6.8341,-6.8345,-6.8237,-6.8402,-6.868,-6.8707,-6.8351,-6.8348,-6.8346,0,-6.8133,-6.8216,-6.8313,-6.8328,-6.8336,-6.8383,-6.8388,-6.84,-6.843,-6.8465,-6.8484,-6.8527,-6.8551,-6.8586,-6.8554,-6.8486,-6.867,-6.857,-6.8662,-6.8663,-6.8702,-6.87,-6.8987,-6.8722,-6.8722,-6.8721,-6.8721,0,-6.8349,-6.844,-6.8397,-6.8456,-6.8557,-6.8512,-6.8613,-6.861,-6.8622,-6.868,-6.8619,-6.8675,-6.8629,-6.8682,-6.8657,-6.8753,-6.8764,-6.8757,-6.8749,-6.8761,-6.8762,-6.8777,-6.8763,-6.8729,-6.8727,-6.8726,-6.8724,0,-6.8571,-6.8546,-6.8647,-6.8647,-6.8649,-6.8723,-6.8723,-6.8779,-6.8765,-6.884,-6.8855,-6.8832,-6.8891,-6.8863,-6.8924,-6.8908,-6.9031,-6.9007,-6.9025,-6.9018,-6.9111,-6.9103,-6.9417,-6.9456,-6.9168,-6.917,-6.9173,0,-6.8709,-6.8778,-6.8786,-6.8821,-6.883,-6.8887,-6.8918,-6.8877,-6.8912,-6.8938,-6.8991,-6.9045,-6.9085,-6.9183,-6.9173,-6.922,-6.9195,-6.9303,-6.9202,-6.9213,-6.9196,-6.9192,-6.9199,-6.9322,-6.9326,-6.9329,-6.9331,0,-6.8957,-6.8942,-6.8988,-6.9031,-6.907,-6.9101,-6.9128,-6.916,-6.9121,-6.9163,-6.9222,-6.9254,-6.9317,-6.9372,-6.9413,-6.9419,-6.937,-6.9363,-6.9387,-6.9399,-6.9407,-6.9404,-6.9079,-6.9355,-6.9353,-6.9351,-6.935,-6.9349,-6.9141,-6.9199,-6.9214,-6.9268,-6.9284,-6.9311,-6.9363,-6.9356,-6.9405,-6.9453,-6.9427,-6.9497,-6.9515,-6.9565,-6.9579,-6.9633,-6.9591,-6.9625,-6.9633,-6.9642,-6.9654,-6.94,-6.9641,-6.964,-6.9639,-6.9639,-6.9638,0,-6.9385,-6.9392,-6.9442,-6.9481,-6.9525,-6.9475,-6.9502,-6.9541,-6.9603,-6.9624,-6.9666,-6.9735,-6.9788,-6.9783,-6.9832,-6.9877,-6.9855,-6.9891,-6.9886,-6.9889,-6.969,-6.9664,-6.9908,-6.9908,-6.9908,-6.9908,-6.9908,-6.9907,-6.9517,-6.9612,-6.9599,-6.9702,-6.9708,-6.9776,-6.9796,-6.9821,-6.9837,-6.9917,-6.9961,-6.9958,-6.9968,-7.0018,-7.0065,-7.0062,-7.0083,-7.0127,-7.0116,-6.993,-6.9903,-6.9877,-6.9853,-7.0132,-7.0132,-7.031,-7.0312,-7.0313]},{"header":{"parameterUnit":"m.s-1","parameterCategory":1,"la1":30.2991,"la2":30.254,"lo1":-89.0895,"lo2":-89.0444,"dy":0.0017,"dx":0.0017,"nx":28,"ny":28,"refTime":"2024-05-12T03:00:00:Z","depth":0,"parameterNumber":3,"parameterNumberName":"V-component_of_WINDS"},"data":[0,0,0,0,0,0,0,0,0,0,0,0,0,0,0,0,0,0,0,0,0,0,0,0,0,0,0,0,0,0,0,0,0,0,0,0,0,0,0,0,0,0,0,0,0,0,0,0,0,0,0,0,0,0,0,0,0,0,-0.6584,-0.6584,0,-0.6592,-0.6592,-0.6592,-0.6602,-0.6602,-0.6602,-0.6602,-0.661,-0.661,-0.661,0,0,0,0,0,0,0,0,0,0,0,0,0,-0.6576,-0.6576,-0.6584,-0.6584,-0.6584,-0.6592,-0.6592,-0.6592,-0.6602,-0.6602,-0.6602,-0.6602,-0.661,-0.661,-0.661,0,0,0,0,0,0,0,0,0,0,0,0,0,-0.6581,-0.6576,-0.6584,-0.659,-0.6591,-0.6592,-0.6592,-0.6592,-0.6602,-0.6602,-0.6602,-0.6602,-0.661,-0.661,-0.661,-0.6606,0,0,-0.6611,-0.6611,0,0,0,0,0,0,0,0,-0.6581,-0.6581,-0.6589,-0.659,-0.659,-0.6596,-0.6592,-0.6597,-0.6602,-0.6598,-0.6602,-0.6603,-0.6605,-0.6606,-0.6607,-0.6607,-0.6607,-0.6611,-0.6611,-0.6611,-0.6611,0,0,0,0,0,0,0,-0.658,-0.6581,-0.6587,-0.6589,-0.659,-0.6592,-0.6593,-0.6593,-0.66,-0.6598,-0.6599,-0.6599,-0.6606,-0.6607,-0.6607,-0.6607,-0.6611,-0.6611,-0.6611,-0.6611,-0.6603,-0.6603,0,0,0,0,0,0,-0.6579,-0.6581,-0.6587,-0.6587,-0.6586,-0.6592,-0.6593,-0.6594,-0.66,-0.6601,-0.6599,-0.66,-0.6606,-0.6607,-0.6607,-0.6602,-0.6611,-0.6611,-0.6611,-0.6603,-0.6603,-0.6603,0,0,0,0,0,0,-0.6579,-0.658,-0.6587,-0.6584,-0.6585,-0.6592,-0.6593,-0.6594,-0.6595,-0.6601,-0.6602,-0.6599,-0.6607,-0.6607,-0.6606,-0.6603,-0.6611,-0.6611,-0.6603,-0.6603,-0.6603,-0.6593,0,0,0,0,0,0,-0.6579,-0.658,-0.6579,-0.6584,-0.6585,-0.6586,-0.6593,-0.6594,-0.6595,-0.6596,-0.6601,-0.6602,-0.6607,-0.6606,-0.6606,-0.6603,-0.6611,-0.6604,-0.6603,-0.6603,-0.6593,-0.6592,-0.6591,0,0,0,0,0,-0.6578,-0.6576,-0.6579,-0.6579,-0.6584,-0.6586,-0.6586,-0.6592,-0.6595,-0.6594,-0.6597,-0.6602,-0.6603,-0.6606,-0.6606,-0.6603,-0.6604,-0.6603,-0.6603,-0.6594,-0.6592,-0.6591,0,0,0,0,0,0,-0.657,-0.6577,-0.658,-0.6579,-0.6582,-0.6587,-0.6586,-0.659,-0.6592,-0.6592,-0.6599,-0.66,-0.6598,-0.66,-0.6603,-0.6599,-0.6604,-0.6604,-0.6597,-0.6596,-0.6595,-0.6594,-0.6611,0,0,0,0,0,-0.6568,-0.6569,-0.6575,-0.6573,-0.6574,-0.658,-0.6581,-0.6584,-0.6587,-0.6588,-0.6592,-0.6595,-0.6595,-0.6596,-0.6597,-0.6594,-0.6594,-0.6591,-0.659,-0.6589,-0.6589,-0.6586,-0.6584,-0.66,-0.66,-0.66,0,0,-0.6564,-0.6568,-0.6568,-0.6572,-0.6574,-0.6574,-0.6581,-0.6581,-0.6581,-0.6589,-0.6588,-0.659,-0.6593,-0.6591,-0.659,-0.6593,-0.6584,-0.6588,-0.6587,-0.6587,-0.6585,-0.6584,-0.6582,-0.66,-0.66,-0.66,0,0,-0.6557,-0.656,-0.6559,-0.6561,-0.6564,-0.6568,-0.6567,-0.6572,-0.6574,-0.6573,-0.6578,-0.6578,-0.6579,-0.6581,-0.6582,-0.6573,-0.6577,-0.6573,-0.6567,-0.6564,-0.6563,-0.6562,-0.6558,-0.6557,-0.6573,-0.6573,-0.6573,0,-0.6552,-0.6552,-0.6558,-0.6557,-0.6558,-0.6564,-0.6563,-0.6564,-0.6568,-0.6568,-0.6571,-0.6572,-0.6575,-0.6572,-0.657,-0.6571,-0.657,-0.6573,-0.6563,-0.6562,-0.6561,-0.6557,-0.6556,-0.6572,-0.6572,-0.6572,-0.6572,0,-0.6545,-0.6545,-0.6544,-0.6547,-0.6547,-0.6546,-0.6551,-0.6551,-0.6554,-0.6556,-0.6555,-0.6558,-0.6559,-0.6559,-0.6562,-0.6556,-0.6558,-0.6562,-0.6567,-0.6558,-0.6555,-0.6554,-0.6572,-0.6572,-0.6572,-0.6572,0,0,-0.6534,-0.6539,-0.6538,-0.6539,-0.6542,-0.6542,-0.6541,-0.6542,-0.6541,-0.6543,-0.6541,-0.6541,-0.6545,-0.6546,-0.6549,-0.6547,-0.6538,-0.6551,-0.6551,-0.6548,-0.6531,-0.6528,-0.6526,-0.6541,-0.6541,-0.654,-0.653,0,-0.6528,-0.6526,-0.6529,-0.6526,-0.6526,-0.6531,-0.6529,-0.6531,-0.6533,-0.6532,-0.6535,-0.6534,-0.6539,-0.654,-0.6537,-0.654,-0.6535,-0.6541,-0.6539,-0.6539,-0.6538,-0.6524,-0.6521,-0.6512,-0.6529,-0.6529,-0.6529,0,-0.652,-0.6521,-0.6517,-0.6519,-0.6519,-0.6518,-0.6518,-0.6518,-0.6519,-0.6521,-0.6521,-0.6524,-0.6522,-0.6527,-0.6524,-0.6528,-0.6527,-0.6528,-0.6527,-0.6528,-0.6533,-0.6524,-0.6509,-0.6507,-0.6527,-0.6527,-0.6527,0,-0.6511,-0.6511,-0.6509,-0.651,-0.6512,-0.6511,-0.6512,-0.6513,-0.6513,-0.6513,-0.6513,-0.6513,-0.6513,-0.6512,-0.6515,-0.6519,-0.6511,-0.6517,-0.6512,-0.6511,-0.651,-0.651,-0.6494,-0.651,-0.651,-0.651,-0.651,0,-0.6503,-0.6501,-0.6505,-0.6504,-0.6501,-0.6505,-0.6501,-0.6503,-0.6504,-0.6502,-0.6506,-0.6504,-0.6509,-0.6507,-0.651,-0.6506,-0.6506,-0.6506,-0.6507,-0.6506,-0.6506,-0.6506,-0.6506,-0.651,-0.651,-0.651,-0.651,0,-0.6494,-0.6497,-0.6494,-0.6496,-0.6497,-0.6494,-0.6496,-0.6494,-0.6496,-0.6494,-0.6493,-0.6496,-0.6494,-0.6497,-0.6496,-0.6497,-0.6492,-0.6494,-0.6491,-0.6492,-0.6486,-0.6486,-0.647,-0.6468,-0.6485,-0.6485,-0.6485,0,-0.6489,-0.6487,-0.6488,-0.6487,-0.6488,-0.6486,-0.6486,-0.6489,-0.6488,-0.6488,-0.6486,-0.6485,-0.6484,-0.648,-0.6482,-0.6481,-0.6482,-0.6477,-0.6482,-0.6481,-0.6481,-0.6481,-0.6481,-0.6475,-0.6475,-0.6475,-0.6475,0,-0.6479,-0.648,-0.6479,-0.6478,-0.6477,-0.6476,-0.6476,-0.6475,-0.6478,-0.6477,-0.6475,-0.6474,-0.6472,-0.647,-0.6469,-0.6469,-0.6472,-0.6473,-0.6472,-0.647,-0.6469,-0.6469,-0.6488,-0.6473,-0.6474,-0.6474,-0.6474,-0.6474,-0.6471,-0.6469,-0.6469,-0.6468,-0.6467,-0.6467,-0.6465,-0.6466,-0.6464,-0.6462,-0.6464,-0.6461,-0.6461,-0.646,-0.6459,-0.6457,-0.6459,-0.6458,-0.6457,-0.6457,-0.6455,-0.6469,-0.6457,-0.6457,-0.6457,-0.6457,-0.6457,0,-0.6461,-0.6461,-0.6459,-0.6458,-0.6456,-0.6459,-0.6458,-0.6457,-0.6454,-0.6453,-0.6452,-0.6449,-0.6446,-0.6447,-0.6445,-0.6443,-0.6444,-0.6442,-0.6442,-0.6442,-0.6454,-0.6455,-0.6441,-0.6441,-0.6441,-0.6441,-0.6441,-0.6441,-0.6455,-0.6452,-0.6452,-0.6448,-0.6448,-0.6445,-0.6444,-0.6443,-0.6442,-0.6438,-0.6436,-0.6437,-0.6436,-0.6434,-0.6431,-0.6432,-0.643,-0.6428,-0.6428,-0.6439,-0.6441,-0.6443,-0.6444,-0.6427,-0.6427,-0.6416,-0.6416,-0.6416]}]]